Regional Weather Roundup
Issued by NWS Sioux Falls, SD

Home | Current Version | Previous Version | Text Only | Print | Product List | Glossary On
Versions: 1 2 3 4 5 6 7 8 9 10 11 12 13 14 15 16 17 18 19 20 21 22 23 24 25 26 27 28 29 30 31 32 33 34 35 36 37 38 39 40 41 42 43 44 45 46 47 48 49 50
000
ASUS43 KFSD 261810
RWRFSD

WEATHER ROUNDUP FOR SE SOUTH DAKOTA/SW MINNESOTA/NW IOWA
NATIONAL WEATHER SERVICE SIOUX FALLS SD
100 PM CDT TUE MAY 26 2015

NOTE: "FAIR" INDICATES FEW OR NO CLOUDS BELOW 12,000 FEET WITH NO
SIGNIFICANT WEATHER AND OR OBSTRUCTIONS TO VISIBILITY.


SDZ038>040-050-052>070-261900-
SOUTHEAST SOUTH DAKOTA

CITY           SKY/WX    TMP DP  RH WIND       PRES   REMARKS
BROOKINGS      CLOUDY    63  52  67 N14       29.85S
CHAMBERLAIN    MOSUNNY   71  51  49 N16G23    29.90F
6HR MIN TEMP:  53; 6HR MAX TEMP:  71;

HURON          PTSUNNY   73  53  49 N12G18    29.85F
6HR MIN TEMP:  52; 6HR MAX TEMP:  74;

MADISON        FAIR      63  55  77 N14       29.86S
MITCHELL       PTSUNNY   71  53  52 N13       29.87F
6HR MIN TEMP:  53; 6HR MAX TEMP:  71;

SIOUX FALLS    CLOUDY    61  53  75 N13       29.85R
6HR MIN TEMP:  55; 6HR MAX TEMP:  61; 6HR PCP: TRACE;

WINNER         MOCLDY    69  50  50 NW13      29.93S
YANKTON        MOSUNNY   64  54  68 N12G22    29.85S
$$

MNZ071-072-080-081-089-090-097-098-261900-
SOUTHWEST MINNESOTA

CITY           SKY/WX    TMP DP  RH WIND       PRES   REMARKS
FAIRMONT       CLOUDY    57  54  88 N6        29.80R
JACKSON        RAIN      57  55  94 VRB3      29.82R
LUVERNE        LGT RAIN  57  52  82 N10       29.85R
MARSHALL       CLOUDY    57  52  82 N8        29.83R
6HR MIN TEMP:  54; 6HR MAX TEMP:  57;

MONTEVIDEO     CLOUDY    64  55  72 NE13      29.83S
REDWOOD FALLS  LGT RAIN  58  55  90 N6        29.81S
WINDOM         RAIN      57  55  94 N3        29.82R
WORTHINGTON    CLOUDY    57  52  82 N12       29.83R
$$

IAZ001>003-012>014-020>022-031-032-NEZ013-014-SDZ071-261900-
NORTHWEST IOWA

CITY           SKY/WX    TMP DP  RH WIND       PRES   REMARKS
CHEROKEE       DRIZZLE   61  60  99 N6        29.81R
DENISON        CLOUDY    64  64 100 W6        29.78S
ESTHERVILLE    RAIN      58  57  97 N6        29.80R FOG
LE MARS        CLOUDY    61  57  88 N9        29.83S
ORANGE CITY    CLOUDY    57  55  94 N7        29.82S
SHELDON        CLOUDY    59 N/A N/A N9        29.81S
SIOUX CITY     CLOUDY    63  57  81 N12       29.82R
6HR MIN TEMP:  62; 6HR MAX TEMP:  63; 6HR PCP:  0.15;

SPENCER        LGT RAIN  60  57  89 N6        29.80S
6HR MIN TEMP:  59; 6HR MAX TEMP:  60; 6HR PCP:  0.12;

STORM LAKE     LGT RAIN  61  61 100 NW7       29.81S
$$

ABBREVIATIONS USED IN REMARKS
   TC - TEMPERATURE IN CELSIUS
  WCI - WIND CHILL INDEX
   HX - HEAT INDEX
  VSB - VISIBILITY




USA.gov is the U.S. government's official web portal to all federal, state and local government web resources and services.